When you browse on this site, cookies collect data to enhance your experience and personalize the content and advertising you see.
Visit our Privacy Policy to learn more. By continuing to use the site, you agree to this use of cookies and data.
  • In Österreich
  • Länderverzeichnis
  • Für 7 Tage
  • Wassertemperatur
  • Satellitenkarten
  • Wetterkarte
  • News
  • Widgets
  • user-avatar
    Anmelden

    Stündliche Wetter Dinagepoor

    Heute, 20 April, Samstag

    Zeit Temperatur Niederschläge Wind Luftdruck Luftfeuchtigkeit
    00:00 +31°C° 0 mm 2 m/S 752 mmHg 29%
    01:00 +30°C° 0 mm 2 m/S 752 mmHg 31%
    02:00 +30°C° 0 mm 2 m/S 752 mmHg 32%
    03:00 +30°C° 0 mm 2 m/S 752 mmHg 33%
    04:00 +29°C° 0 mm 2 m/S 752 mmHg 34%
    05:00 +29°C° 0 mm 2 m/S 752 mmHg 36%
    06:00 +29°C° 0 mm 2 m/S 752 mmHg 40%
    07:00 +31°C° 0 mm 3 m/S 752 mmHg 36%
    08:00 +34°C° 0 mm 4 m/S 753 mmHg 32%
    09:00 +36°C° 0 mm 4 m/S 753 mmHg 28%
    10:00 +37°C° 0 mm 4 m/S 753 mmHg 25%
    11:00 +38°C° 0 mm 4 m/S 752 mmHg 22%
    12:00 +40°C° 0 mm 4 m/S 752 mmHg 20%
    13:00 +40°C° 0 mm 4 m/S 752 mmHg 20%
    14:00 +38°C° 0 mm 4 m/S 751 mmHg 21%
    15:00 +38°C° 0 mm 4 m/S 750 mmHg 21%
    16:00 +38°C° 0 mm 3 m/S 750 mmHg 22%
    17:00 +37°C° 0 mm 3 m/S 750 mmHg 24%
    18:00 +37°C° 0 mm 3 m/S 750 mmHg 25%
    19:00 +36°C° 0 mm 3 m/S 750 mmHg 26%
    20:00 +34°C° 0 mm 3 m/S 750 mmHg 27%
    21:00 +32°C° 0 mm 2 m/S 751 mmHg 29%
    22:00 +32°C° 0 mm 2 m/S 751 mmHg 29%
    23:00 +31°C° 0 mm 2 m/S 751 mmHg 30%

    Morgen, 21 April, Sonntag

    Zeit Temperatur Niederschläge Wind Luftdruck Luftfeuchtigkeit
    00:00 +31°C° 0 mm 2 m/S 751 mmHg 31%
    01:00 +30°C° 0 mm 2 m/S 751 mmHg 33%
    02:00 +30°C° 0 mm 1 m/S 750 mmHg 34%
    03:00 +27°C° 0 mm 0 m/S 750 mmHg 36%
    04:00 +29°C° 0 mm 1 m/S 750 mmHg 37%
    05:00 +28°C° 0 mm 1 m/S 750 mmHg 38%
    06:00 +28°C° 0 mm 1 m/S 751 mmHg 40%
    07:00 +30°C° 0 mm 2 m/S 751 mmHg 37%
    08:00 +32°C° 0 mm 2 m/S 752 mmHg 34%
    09:00 +35°C° 0 mm 2 m/S 753 mmHg 32%
    10:00 +36°C° 0 mm 2 m/S 752 mmHg 29%
    11:00 +38°C° 0 mm 2 m/S 752 mmHg 26%
    12:00 +39°C° 0 mm 1 m/S 752 mmHg 23%
    13:00 +40°C° 0 mm 2 m/S 751 mmHg 21%
    14:00 +42°C° 0 mm 3 m/S 750 mmHg 18%
    15:00 +42°C° 0 mm 4 m/S 750 mmHg 16%
    16:00 +40°C° 0 mm 3 m/S 749 mmHg 18%
    17:00 +40°C° 0 mm 2 m/S 749 mmHg 19%
    18:00 +39°C° 0 mm 2 m/S 749 mmHg 21%
    19:00 +37°C° 0 mm 2 m/S 749 mmHg 23%
    20:00 +36°C° 0 mm 2 m/S 750 mmHg 26%
    21:00 +35°C° 0 mm 2 m/S 750 mmHg 28%
    22:00 +34°C° 0 mm 3 m/S 750 mmHg 30%
    23:00 +34°C° 0 mm 3 m/S 750 mmHg 33%

    übermorgen, 22 April, Montag

    Zeit Temperatur Niederschläge Wind Luftdruck Luftfeuchtigkeit
    00:00 +33°C° 0 mm 4 m/S 750 mmHg 35%
    01:00 +32°C° 0 mm 4 m/S 750 mmHg 38%
    02:00 +30°C° 0 mm 3 m/S 750 mmHg 41%
    03:00 +29°C° 0 mm 3 m/S 750 mmHg 43%
    04:00 +29°C° 0 mm 3 m/S 750 mmHg 43%
    05:00 +29°C° 0 mm 3 m/S 750 mmHg 44%
    06:00 +29°C° 0 mm 3 m/S 751 mmHg 44%
    07:00 +30°C° 0.1 mm 4 m/S 751 mmHg 43%
    08:00 +32°C° 0.1 mm 4 m/S 752 mmHg 43%
    09:00 +33°C° 0.1 mm 5 m/S 753 mmHg 42%
    10:00 +35°C° 0 mm 4 m/S 752 mmHg 38%
    11:00 +36°C° 0 mm 3 m/S 752 mmHg 34%
    12:00 +38°C° 0 mm 3 m/S 752 mmHg 30%
    13:00 +39°C° 0 mm 2 m/S 751 mmHg 28%
    14:00 +40°C° 0 mm 1 m/S 750 mmHg 26%
    15:00 +41°C° 0 mm 1 m/S 750 mmHg 24%
    16:00 +39°C° 0.2 mm 3 m/S 750 mmHg 27%
    17:00 +37°C° 0.2 mm 5 m/S 749 mmHg 31%
    18:00 +37°C° 0.2 mm 8 m/S 749 mmHg 35%
    19:00 +35°C° 0.3 mm 6 m/S 750 mmHg 36%
    20:00 +34°C° 0.3 mm 5 m/S 751 mmHg 37%
    21:00 +33°C° 0.3 mm 3 m/S 752 mmHg 38%
    22:00 +33°C° 0.1 mm 3 m/S 752 mmHg 40%
    23:00 +31°C° 0.1 mm 2 m/S 752 mmHg 43%

    23 April, Dienstag

    Zeit Temperatur Niederschläge Wind Luftdruck Luftfeuchtigkeit
    00:00 +31°C° 0.1 mm 2 m/S 752 mmHg 45%
    01:00 +30°C° 0 mm 2 m/S 752 mmHg 47%
    02:00 +29°C° 0 mm 2 m/S 752 mmHg 49%
    03:00 +29°C° 0 mm 3 m/S 751 mmHg 52%
    04:00 +29°C° 0 mm 3 m/S 752 mmHg 53%
    05:00 +28°C° 0 mm 3 m/S 752 mmHg 55%
    06:00 +28°C° 0 mm 3 m/S 752 mmHg 56%
    07:00 +30°C° 0 mm 3 m/S 753 mmHg 52%
    08:00 +31°C° 0 mm 3 m/S 753 mmHg 48%
    09:00 +34°C° 0 mm 4 m/S 754 mmHg 43%
    10:00 +36°C° 0 mm 4 m/S 754 mmHg 40%
    11:00 +37°C° 0 mm 4 m/S 754 mmHg 37%
    12:00 +38°C° 0 mm 4 m/S 753 mmHg 34%
    13:00 +39°C° 0 mm 3 m/S 753 mmHg 32%
    14:00 +39°C° 0 mm 3 m/S 752 mmHg 30%
    15:00 +40°C° 0 mm 2 m/S 751 mmHg 28%
    16:00 +40°C° 0 mm 1 m/S 751 mmHg 29%
    17:00 +39°C° 0 mm 1 m/S 751 mmHg 30%
    18:00 +36°C° 0 mm 0 m/S 750 mmHg 31%
    19:00 +37°C° 0 mm 1 m/S 751 mmHg 33%
    20:00 +37°C° 0 mm 2 m/S 752 mmHg 34%
    21:00 +35°C° 0 mm 2 m/S 753 mmHg 36%
    22:00 +34°C° 0.4 mm 3 m/S 753 mmHg 42%
    23:00 +33°C° 0.4 mm 4 m/S 753 mmHg 48%

    24 April, Mittwoch

    Zeit Temperatur Niederschläge Wind Luftdruck Luftfeuchtigkeit
    00:00 +32°C° 0.4 mm 4 m/S 753 mmHg 54%
    01:00 +30°C° 0 mm 3 m/S 753 mmHg 55%
    02:00 +30°C° 0 mm 3 m/S 752 mmHg 57%
    03:00 +29°C° 0 mm 2 m/S 752 mmHg 58%
    04:00 +29°C° 0 mm 2 m/S 752 mmHg 59%
    05:00 +29°C° 0 mm 2 m/S 753 mmHg 60%
    06:00 +29°C° 0 mm 3 m/S 753 mmHg 61%
    07:00 +30°C° 0 mm 3 m/S 754 mmHg 57%
    08:00 +33°C° 0 mm 4 m/S 754 mmHg 52%
    09:00 +34°C° 0 mm 5 m/S 755 mmHg 48%
    10:00 +36°C° 0 mm 4 m/S 755 mmHg 43%
    11:00 +37°C° 0 mm 4 m/S 754 mmHg 39%
    12:00 +40°C° 0 mm 4 m/S 754 mmHg 34%
    13:00 +39°C° 0 mm 3 m/S 753 mmHg 32%
    14:00 +40°C° 0 mm 3 m/S 752 mmHg 30%
    15:00 +41°C° 0 mm 2 m/S 751 mmHg 27%
    16:00 +41°C° 0 mm 2 m/S 751 mmHg 28%
    17:00 +40°C° 0 mm 1 m/S 750 mmHg 29%
    18:00 +40°C° 0 mm 1 m/S 750 mmHg 29%
    19:00 +39°C° 0 mm 2 m/S 751 mmHg 32%
    20:00 +37°C° 0 mm 3 m/S 751 mmHg 35%
    21:00 +36°C° 0 mm 4 m/S 752 mmHg 38%
    22:00 +35°C° 0 mm 3 m/S 752 mmHg 40%
    23:00 +34°C° 0 mm 3 m/S 752 mmHg 42%

    25 April, Donnerstag

    Zeit Temperatur Niederschläge Wind Luftdruck Luftfeuchtigkeit
    00:00 +34°C° 0 mm 3 m/S 752 mmHg 44%
    01:00 +33°C° 0.1 mm 3 m/S 752 mmHg 47%
    02:00 +31°C° 0.1 mm 3 m/S 752 mmHg 50%
    03:00 +30°C° 0.1 mm 4 m/S 751 mmHg 52%
    04:00 +30°C° 0 mm 3 m/S 752 mmHg 54%
    05:00 +30°C° 0 mm 3 m/S 752 mmHg 57%
    06:00 +29°C° 0 mm 3 m/S 752 mmHg 59%
    07:00 +32°C° 0 mm 4 m/S 753 mmHg 55%
    08:00 +34°C° 0 mm 4 m/S 753 mmHg 51%
    09:00 +35°C° 0 mm 5 m/S 754 mmHg 46%
    10:00 +37°C° 0 mm 5 m/S 753 mmHg 42%
    11:00 +39°C° 0 mm 5 m/S 753 mmHg 37%
    12:00 +41°C° 0 mm 5 m/S 753 mmHg 33%
    13:00 +42°C° 0 mm 5 m/S 752 mmHg 30%
    14:00 +43°C° 0 mm 4 m/S 751 mmHg 27%
    15:00 +44°C° 0 mm 4 m/S 750 mmHg 24%
    16:00 +43°C° 0 mm 3 m/S 750 mmHg 25%
    17:00 +42°C° 0 mm 3 m/S 749 mmHg 26%
    18:00 +42°C° 0 mm 3 m/S 749 mmHg 27%
    19:00 +39°C° 0 mm 3 m/S 750 mmHg 31%
    20:00 +38°C° 0 mm 4 m/S 750 mmHg 35%
    21:00 +36°C° 0 mm 5 m/S 751 mmHg 39%
    22:00 +36°C° 0 mm 4 m/S 751 mmHg 40%
    23:00 +35°C° 0 mm 4 m/S 751 mmHg 41%
    Mehr zeigen